West Lafayette, IN

3:12 AM EST on January 22, 2017 (GMT -0500)
Purdue Univ

Weather History for KLAF - June, 2013

Change the Weather History Date:

Monday, June 24, 2013

  Actual Average Record
Temperature  
Mean Temperature 75 °F 74 °F  
Max Temperature 84 °F 85 °F 97 °F (1988)
Min Temperature 66 °F 63 °F 49 °F (1986)
Degree Days  
Heating Degree Days 0 0  
Month to date heating degree days 18 22  
Since 1 June heating degree days 18 22  
Since 1 July heating degree days 5911 5672  
Cooling Degree Days 10 9  
Month to date cooling degree days 128 161  
Year to date cooling degree days 229 238  
Since 1 June cooling degree days 128 161  
Growing Degree Days 25 (Base 50)    
Moisture  
Dew Point 67 °F    
Average Humidity 81    
Maximum Humidity 100    
Minimum Humidity 61    
Precipitation  
Precipitation 0.09 in 0.13 in 1.82 in (1950)
Month to date precipitation 2.54 3.28  
Year to date precipitation 21.16 17.30  
Sea Level Pressure  
Sea Level Pressure 30.04 in    
Wind  
Wind Speed 5 mph (SW)    
Max Wind Speed 30 mph    
Max Gust Speed 41 mph    
Visibility 7 miles    
Events Rain , Thunderstorm    
T = Trace of Precipitation, MM = Missing Value Source: NWS Daily Summary

Daily Weather History Graph

Daily Weather History Graph

Search for Another Location

Airport or City:

Trip Planner

Search our weather history database for the weather conditions in past years. The results will help you decide how hot, cold, wet, or windy it might be!

Date:

Astronomy

Jun. 24, 2013 Rise Set
Actual Time 6:18 AM EDT 9:21 PM EDT
Civil Twilight 5:45 AM EDT 9:55 PM EDT
Nautical Twilight 5:03 AM EDT 10:37 PM EDT
Astronomical Twilight 4:13 AM EDT 11:26 PM EDT
Moon 10:23 PM EDT (6/24) 7:46 AM EDT (6/24)
Length of Visible Light 16h 09m
Length of Day
15h 03m
Full, 98% of the Moon is Illuminated
Jun 24
Full
Jun 30
Last Quarter
Jul 8
New
Jul 15
First Quarter
Jul 22
Full

Hourly Weather History & Observations

Time (EDT) Temp. Heat Index Dew Point Humidity Pressure Visibility Wind Dir Wind Speed Gust Speed Precip Events Conditions
12:54 AM 72.0 °F - 66.0 °F 81% 30.03 in 10.0 mi South 3.5 mph - N/A   Clear
1:54 AM 71.1 °F - 66.9 °F 87% 30.04 in 10.0 mi Calm Calm - N/A   Clear
2:54 AM 68.0 °F - 66.9 °F 96% 30.04 in 7.0 mi Calm Calm - N/A   Clear
3:52 AM 68.0 °F - 66.2 °F 94% 30.05 in 5.0 mi Calm Calm - N/A   Mostly Cloudy
3:54 AM 68.0 °F - 66.9 °F 96% 30.04 in 5.0 mi Calm Calm - N/A   Mostly Cloudy
4:20 AM 68.0 °F - 66.2 °F 94% 30.05 in 6.0 mi Calm Calm - N/A   Scattered Clouds
4:54 AM 68.0 °F - 66.9 °F 96% 30.02 in 5.0 mi South 3.5 mph - N/A   Clear
5:54 AM 66.9 °F - 66.9 °F 100% 30.02 in 3.0 mi South 3.5 mph - N/A   Clear
6:16 AM 68.0 °F - 66.2 °F 94% 30.04 in 1.8 mi Calm Calm - N/A   Clear
6:54 AM 68.0 °F - 68.0 °F 100% 30.05 in 1.8 mi Calm Calm - N/A   Clear
7:19 AM 69.8 °F - 68.0 °F 94% 30.08 in 2.5 mi WSW 5.8 mph - N/A   Clear
7:28 AM 69.8 °F - 68.0 °F 94% 30.09 in 3.0 mi WSW 8.1 mph - N/A   Partly Cloudy
7:38 AM 69.8 °F - 66.2 °F 88% 30.09 in 4.0 mi West 8.1 mph - N/A   Mostly Cloudy
7:47 AM 69.8 °F - 66.2 °F 88% 30.09 in 5.0 mi WSW 6.9 mph - N/A   Scattered Clouds
7:54 AM 69.1 °F - 66.9 °F 93% 30.09 in 6.0 mi West 6.9 mph - N/A   Partly Cloudy
8:54 AM 70.0 °F - 66.0 °F 87% 30.09 in 10.0 mi SW 3.5 mph - N/A   Clear
9:54 AM 73.0 °F - 66.0 °F 79% 30.10 in 10.0 mi Variable 3.5 mph - N/A   Mostly Cloudy
10:54 AM 75.0 °F - 64.9 °F 71% 30.11 in 10.0 mi Calm Calm - N/A   Partly Cloudy
11:54 AM 75.9 °F - 66.0 °F 71% 30.10 in 10.0 mi South 4.6 mph - N/A   Clear
12:54 PM 77.0 °F - 66.9 °F 71% 30.09 in 10.0 mi SSW 4.6 mph - N/A   Clear
1:54 PM 80.1 °F 82.7 °F 68.0 °F 67% 30.04 in 10.0 mi SSW 8.1 mph - N/A   Clear
2:54 PM 81.0 °F 83.8 °F 68.0 °F 65% 30.02 in 10.0 mi South 10.4 mph 17.3 mph N/A   Clear
3:54 PM 84.0 °F 88.4 °F 70.0 °F 63% 30.01 in 10.0 mi SW 8.1 mph - N/A   Clear
4:54 PM 84.0 °F 88.4 °F 70.0 °F 63% 29.98 in 10.0 mi SSW 12.7 mph 17.3 mph N/A   Clear
5:54 PM 84.0 °F 89.6 °F 72.0 °F 67% 29.98 in 10.0 mi SSW 6.9 mph 16.1 mph N/A   Clear
6:54 PM 82.9 °F 88.0 °F 72.0 °F 69% 30.00 in 8.0 mi SW 9.2 mph - N/A   Partly Cloudy
7:54 PM 82.0 °F 87.4 °F 73.0 °F 74% 29.98 in 7.0 mi South 4.6 mph - N/A   Clear
8:54 PM 80.1 °F 84.2 °F 73.0 °F 79% 30.01 in 9.0 mi West 6.9 mph - N/A   Partly Cloudy
9:03 PM 75.2 °F - 64.4 °F 69% 30.07 in 10.0 mi WNW 28.8 mph 41.4 mph N/A Thunderstorm Scattered Clouds
9:20 PM 66.2 °F - 64.4 °F 94% 30.05 in 2.5 mi West 11.5 mph 31.1 mph 0.08 in Rain , Thunderstorm Thunderstorms and Rain
9:27 PM 66.2 °F - 64.4 °F 94% 30.02 in 7.0 mi Variable 3.5 mph - 0.08 in Rain , Thunderstorm Light Thunderstorms and Rain
9:54 PM 66.0 °F - 64.0 °F 93% 29.94 in 10.0 mi East 6.9 mph - 0.09 in   Scattered Clouds
10:54 PM 66.9 °F - 64.9 °F 93% 29.96 in 10.0 mi SW 4.6 mph - N/A   Clear
11:54 PM 66.9 °F - 64.9 °F 93% 30.00 in 10.0 mi North 5.8 mph - N/A   Clear